Regional Weather Roundup
Issued by NWS New Orleans/Baton Rouge, LA

Home | Current Version | Previous Version | Graphics & Text | Print | Product List | Glossary On
Versions: 1 2 3 4 5 6 7 8 9 10 11 12 13 14 15 16 17 18 19 20 21 22 23 24 25 26 27 28 29 30 31 32 33 34 35 36 37 38 39 40 41 42 43 44 45 46 47 48 49 50
589
ASUS44 KLIX 012301
RWRLIX
NEW ORLEANS REGIONAL WEATHER ROUNDUP
NATIONAL WEATHER SERVICE NEW ORLEANS LA
600 PM CDT WED OCT 01 2014

NOTE: "FAIR" INDICATES FEW OR NO CLOUDS BELOW 12,000 FEET WITH NO
      SIGNIFICANT WEATHER AND/OR OBSTRUCTIONS TO VISIBILITY.
      SKY/WX - SKY CONDITION AND SIGNIFICANT WEATHER.
      TMP - AIR TEMPERATURE.     DP    - DEWPOINT TEMPERATURE.
      RH  - RELATIVE HUMIDITY.   PRES  - PRESSURE.
      HI  - HEAT INDEX.          WCI   - WIND CHILL INDEX.

*  THESE STATIONS ARE NOT NWS OR FAA STATIONS AND ARE NOT UNDER
   NWS QUALITY CONTROL.

LAZ038-040-048-061>063-065>067-069-020000-
SOUTHEAST LOUISIANA

CITY           SKY/WX    TMP DP  RH WIND       PRES   REMARKS
N.O. AUDUBON     N/A     82  76  82 MISG        N/A
N.O. INTL ARPT CLOUDY    82  74  76 SE5       29.89R
N.O. LAKEFRONT CLOUDY    82  74  76 SE14      29.90R
N.O. DOWNTOWN* CLOUDY    81  72  74 SE10      29.90R
SLIDELL        CLOUDY    81  73  76 E6        29.90R
BATON ROUGE    MOCLDY    81  71  71 SE12      29.88R
BOOTHVILLE     MOCLDY    80  76  87 SE6       29.91S
BELLE CHASSE   CLOUDY    81  74  79 SE9       29.89R
BOGALUSA*        N/A     83  71  68 SE6       29.91S
GALLIANO*      NOT AVBL
NEW ROADS*     MOCLDY    83  74  73 SE3       29.87R
GONZALES*      RAIN      78  78 100 CALM      29.88R
HAMMOND*       NOT AVBL
HOUMA*         MOCLDY   N/A N/A N/A SE6       29.88F
PORT FOURCHON* PTCLDY    81  75  83 VRB7      29.93R

$$

MSZ070-080>082-020000-
SOUTHERN MISSISSIPPI

CITY           SKY/WX    TMP DP  RH WIND       PRES   REMARKS
MCCOMB         PTCLDY    81  71  71 SE9       29.89S
GULFPORT       MOCLDY    80  74  81 SE12      29.91S
BILOXI         MOCLDY    80  74  81 SE7       29.92R
PASCAGOULA     MOCLDY    79  73  82 SE7       29.92S
STENNIS ARPT*  MOCLDY    81  70  69 SE6       29.91S

$$

COASTAL OBSERVATIONS
LAKE AND NEARSHORE STATIONS

STATION/POSITION TIME  TEMP    WIND        PRES    WAVE
                       AIR SEA DIR/SP/G            HT/PER
                 (UTC) (F)     (DEG/KT/KT) (MB)    (FT/S)
PASCAGOULA       2200   80     120/  8/ 12 1012.8
WAVELAND YACHT   2200   79     120/ 10/ 12 1012.1
GRAND ISLE       2200   80 81  130/  4/  6 1012.9
SOUTHWEST PASS   2200   82 85  160/  4/  5 1012.9
NEW CANAL        2200   82 78  140/  3/  7 1012.5
SHELL BEACH      2200   81 76  140/ 10/ 12 1012.4

OFFSHORE STATIONS

STATION/POSITION TIME  TEMP    WIND        PRES    WAVE
                       AIR SEA DIR/SP/G            HT/PER
                 (UTC) (F)     (DEG/KT/KT) (MB)    (FT/S)
64 S DAUPHIN ISL 2205   81 83  120/  8/ 10 1013.4    1/ 4

$$




USA.gov is the U.S. government's official web portal to all federal, state and local government web resources and services.